[[{"header":{"parameterUnit":"m.s-1","parameterCategory":1,"la1":30.2991,"la2":30.254,"lo1":-89.0895,"lo2":-89.0444,"dy":0.0017,"dx":0.0017,"nx":28,"ny":28,"refTime":"2025-04-07T09:00:00:Z","depth":0,"parameterNumber":2,"parameterNumberName":"U-component_of_WINDS"},"data":[0,0,0,0,0,0,0,0,0,0,0,0,0,0,0,0,0,0,0,0,0,0,0,0,0,0,0,0,0,0,0,0,0,0,0,0,0,0,0,0,0,0,0,0,0,0,0,0,0,0,0,0,0,0,0,0,0,0,1.7931,1.7931,0,1.7859,1.7858,1.7857,1.7803,1.7802,1.7802,1.7801,1.7724,1.7723,1.7721,0,0,0,0,0,0,0,0,0,0,0,0,0,1.802,1.8019,1.7931,1.7931,1.793,1.7859,1.7858,1.7857,1.7803,1.7802,1.7802,1.7801,1.7725,1.7723,1.7721,0,0,0,0,0,0,0,0,0,0,0,0,0,1.7968,1.8019,1.7932,1.7894,1.789,1.7859,1.7858,1.7857,1.7803,1.7802,1.7801,1.7801,1.7725,1.7723,1.7721,1.772,0,0,1.7713,1.7712,0,0,0,0,0,0,0,0,1.7971,1.7965,1.7901,1.7897,1.7892,1.7839,1.7861,1.7811,1.7803,1.7836,1.7801,1.78,1.7763,1.7757,1.7745,1.7717,1.7713,1.7713,1.7712,1.7711,1.771,0,0,0,0,0,0,0,1.7975,1.7968,1.7903,1.79,1.7894,1.788,1.7872,1.7851,1.7804,1.7833,1.7829,1.7821,1.776,1.7748,1.7743,1.7712,1.7713,1.7711,1.7709,1.7709,1.7679,1.768,0,0,0,0,0,0,1.7985,1.7971,1.7905,1.79,1.7931,1.7879,1.787,1.7857,1.7804,1.7796,1.7822,1.7819,1.7752,1.7746,1.774,1.7736,1.7711,1.7708,1.7707,1.7679,1.768,1.768,0,0,0,0,0,0,1.7987,1.7979,1.7908,1.7935,1.7925,1.7878,1.7864,1.7856,1.7843,1.7796,1.7787,1.7818,1.7751,1.7743,1.7726,1.7732,1.7707,1.7705,1.7678,1.7679,1.768,1.7727,0,0,0,0,0,0,1.799,1.798,1.798,1.7935,1.7923,1.7896,1.7865,1.7855,1.7839,1.7835,1.779,1.7781,1.775,1.773,1.7723,1.7728,1.7703,1.7677,1.7678,1.768,1.7725,1.773,1.7734,0,0,0,0,0,1.7993,1.7996,1.7981,1.7973,1.7922,1.7896,1.7889,1.7854,1.784,1.7839,1.7809,1.7783,1.7733,1.7728,1.7721,1.7725,1.7677,1.7678,1.768,1.7723,1.7729,1.7734,0,0,0,0,0,0,1.8042,1.7989,1.7972,1.796,1.7933,1.7887,1.7885,1.7861,1.7837,1.7833,1.779,1.778,1.7767,1.7744,1.774,1.7722,1.7701,1.7701,1.7737,1.7742,1.7747,1.7752,1.7701,0,0,0,0,0,1.8052,1.8036,1.799,1.7985,1.7972,1.7931,1.7918,1.7894,1.7863,1.7851,1.782,1.7791,1.7768,1.7754,1.7731,1.7722,1.7711,1.7721,1.7726,1.773,1.773,1.7723,1.7727,1.7685,1.7685,1.7685,0,0,1.8071,1.804,1.8033,1.7994,1.797,1.7953,1.7922,1.7905,1.7892,1.7848,1.783,1.7806,1.777,1.7757,1.7749,1.7738,1.7739,1.7732,1.7735,1.7733,1.7725,1.7729,1.7732,1.7686,1.7686,1.7686,0,0,1.8098,1.8074,1.8066,1.8043,1.8008,1.798,1.7979,1.7936,1.7919,1.79,1.7866,1.785,1.7813,1.7789,1.7772,1.7791,1.7765,1.7784,1.7807,1.7801,1.7804,1.7807,1.7812,1.7815,1.7785,1.7785,1.7785,0,1.8126,1.81,1.8065,1.8051,1.8034,1.7995,1.7986,1.7966,1.7924,1.7913,1.7901,1.7854,1.7827,1.7807,1.7812,1.78,1.7796,1.7788,1.7807,1.7809,1.7811,1.7816,1.7818,1.7787,1.7787,1.7787,1.7787,0,1.8136,1.8119,1.8117,1.8079,1.8063,1.8052,1.8013,1.8001,1.7978,1.7952,1.7933,1.79,1.7869,1.7863,1.784,1.784,1.7834,1.7815,1.7793,1.7818,1.7822,1.7823,1.7791,1.779,1.7789,1.7789,0,0,1.819,1.8134,1.8133,1.8116,1.8074,1.806,1.8047,1.8018,1.8008,1.7981,1.7968,1.7938,1.792,1.7901,1.7875,1.787,1.7886,1.7851,1.785,1.7858,1.7883,1.7896,1.7899,1.787,1.787,1.787,1.7885,0,1.8209,1.8185,1.8152,1.8138,1.8121,1.8085,1.8073,1.8046,1.8022,1.8003,1.7976,1.7955,1.7934,1.7922,1.7915,1.7886,1.789,1.7884,1.7856,1.7856,1.7865,1.7901,1.7915,1.7931,1.7887,1.7887,1.7887,0,1.8228,1.8204,1.8188,1.8149,1.814,1.8131,1.8102,1.8085,1.8054,1.8036,1.8016,1.7988,1.7972,1.7954,1.793,1.7927,1.7913,1.7897,1.7897,1.7891,1.7872,1.7895,1.7935,1.7937,1.7889,1.7889,1.7889,0,1.8267,1.8231,1.8217,1.8203,1.8157,1.8151,1.8131,1.8099,1.8084,1.8058,1.8048,1.8021,1.8005,1.7985,1.795,1.7941,1.793,1.7909,1.7914,1.7915,1.7912,1.7912,1.7949,1.7906,1.7906,1.7906,1.7906,0,1.8291,1.8283,1.8234,1.8225,1.8215,1.8178,1.8168,1.8145,1.8117,1.8102,1.8069,1.8056,1.8012,1.7994,1.7967,1.7951,1.7944,1.7929,1.7922,1.7931,1.7933,1.7921,1.7918,1.7907,1.7907,1.7907,1.7906,0,1.8333,1.83,1.8282,1.824,1.8229,1.8223,1.8187,1.8176,1.8151,1.8133,1.8126,1.8086,1.8062,1.8027,1.7992,1.7974,1.7962,1.7951,1.7973,1.7968,1.7975,1.7974,1.8003,1.8005,1.7963,1.7963,1.7964,0,1.8349,1.8342,1.83,1.8288,1.827,1.8251,1.8236,1.82,1.8185,1.8149,1.8143,1.8117,1.8094,1.8058,1.8025,1.7999,1.7986,1.7998,1.7981,1.7991,1.7984,1.7985,1.7983,1.8001,1.8002,1.8002,1.8003,0,1.8382,1.8366,1.8346,1.832,1.8303,1.828,1.8256,1.8248,1.8207,1.8192,1.8168,1.815,1.8116,1.809,1.806,1.8038,1.8013,1.8009,1.8008,1.8017,1.8029,1.8021,1.7982,1.8008,1.8007,1.8007,1.8006,1.8006,1.841,1.8402,1.8371,1.8349,1.8328,1.8306,1.8294,1.8268,1.8248,1.8217,1.8197,1.8174,1.8143,1.8099,1.8079,1.806,1.805,1.8049,1.8049,1.8049,1.8052,1.8034,1.8055,1.8055,1.8054,1.8054,1.8054,0,1.844,1.8419,1.8399,1.8367,1.835,1.833,1.8302,1.8289,1.8269,1.8243,1.8222,1.8194,1.817,1.8135,1.8108,1.8099,1.8087,1.8093,1.8092,1.8088,1.8064,1.8066,1.8103,1.8103,1.8103,1.8103,1.8103,1.8103,1.8453,1.8438,1.8419,1.8393,1.8371,1.8349,1.8335,1.8315,1.8293,1.8264,1.8244,1.8222,1.8192,1.8163,1.8139,1.8129,1.812,1.813,1.8117,1.8094,1.809,1.8085,1.8087,1.8128,1.8128,1.8142,1.8142,1.8142]},{"header":{"parameterUnit":"m.s-1","parameterCategory":1,"la1":30.2991,"la2":30.254,"lo1":-89.0895,"lo2":-89.0444,"dy":0.0017,"dx":0.0017,"nx":28,"ny":28,"refTime":"2025-04-07T09:00:00:Z","depth":0,"parameterNumber":3,"parameterNumberName":"V-component_of_WINDS"},"data":[0,0,0,0,0,0,0,0,0,0,0,0,0,0,0,0,0,0,0,0,0,0,0,0,0,0,0,0,0,0,0,0,0,0,0,0,0,0,0,0,0,0,0,0,0,0,0,0,0,0,0,0,0,0,0,0,0,0,-6.7747,-6.775,0,-6.8031,-6.8034,-6.8037,-6.7982,-6.7977,-6.7971,-6.7967,-6.8259,-6.8271,-6.8284,0,0,0,0,0,0,0,0,0,0,0,0,0,-6.7155,-6.7167,-6.7746,-6.775,-6.7754,-6.803,-6.8034,-6.8038,-6.7983,-6.7976,-6.797,-6.7964,-6.8255,-6.827,-6.8285,0,0,0,0,0,0,0,0,0,0,0,0,0,-6.7423,-6.717,-6.7746,-6.7759,-6.7763,-6.803,-6.8034,-6.8039,-6.7984,-6.7976,-6.7968,-6.7961,-6.825,-6.8268,-6.8287,-6.8558,0,0,-6.8345,-6.8353,0,0,0,0,0,0,0,0,-6.7408,-6.7445,-6.7754,-6.7759,-6.7764,-6.7963,-6.7933,-6.8213,-6.7986,-6.79,-6.7966,-6.7957,-6.8167,-6.8192,-6.8262,-6.8572,-6.8584,-6.8346,-6.8358,-6.8366,-6.8371,0,0,0,0,0,0,0,-6.739,-6.7432,-6.7859,-6.7758,-6.7764,-6.7751,-6.778,-6.7986,-6.8073,-6.7907,-6.7904,-6.7938,-6.8168,-6.8244,-6.8269,-6.8589,-6.8346,-6.8362,-6.8374,-6.8381,-6.9134,-6.9142,0,0,0,0,0,0,-6.7366,-6.7417,-6.785,-6.7867,-6.7563,-6.7768,-6.7801,-6.7907,-6.8071,-6.8089,-6.7944,-6.7934,-6.8216,-6.8247,-6.8279,-6.8607,-6.8366,-6.8383,-6.8394,-6.9125,-6.9136,-6.9145,0,0,0,0,0,0,-6.7354,-6.7405,-6.7838,-6.7642,-6.7696,-6.7786,-6.7906,-6.7916,-6.7993,-6.8099,-6.8114,-6.8006,-6.8211,-6.8252,-6.8489,-6.8617,-6.8392,-6.8409,-6.9115,-6.9129,-6.9141,-6.9266,0,0,0,0,0,0,-6.7337,-6.7401,-6.7506,-6.7644,-6.7706,-6.8044,-6.7914,-6.7928,-6.8025,-6.8015,-6.8161,-6.8178,-6.8208,-6.8461,-6.8508,-6.8639,-6.8424,-6.9104,-6.9121,-6.9137,-6.9251,-6.9282,-6.9308,0,0,0,0,0,-6.7316,-6.753,-6.7511,-6.7564,-6.7839,-6.8052,-6.8087,-6.8117,-6.8036,-6.8141,-6.8209,-6.8174,-6.8595,-6.8486,-6.8538,-6.8676,-6.9096,-6.9116,-6.9135,-6.9238,-6.9276,-6.9308,0,0,0,0,0,0,-6.7405,-6.7549,-6.7529,-6.7794,-6.7911,-6.8042,-6.8176,-6.8156,-6.8299,-6.8283,-6.8314,-6.8348,-6.8588,-6.8656,-6.8532,-6.8947,-6.8834,-6.8865,-6.8895,-6.8931,-6.8959,-6.8939,-6.8439,0,0,0,0,0,-6.7455,-6.7616,-6.7733,-6.7955,-6.8015,-6.8086,-6.8179,-6.8192,-6.8314,-6.8364,-6.8449,-6.857,-6.8729,-6.8833,-6.8986,-6.926,-6.9291,-6.9381,-6.9409,-6.9432,-6.9459,-6.9608,-6.965,-6.9209,-6.9209,-6.9209,0,0,-6.7561,-6.7659,-6.7759,-6.7976,-6.8068,-6.8234,-6.8128,-6.8308,-6.8431,-6.8391,-6.862,-6.8687,-6.8823,-6.9079,-6.9197,-6.9143,-6.9587,-6.9457,-6.9474,-6.9489,-6.9633,-6.9674,-6.9711,-6.9223,-6.922,-6.9218,0,0,-6.7839,-6.7929,-6.8124,-6.8218,-6.8358,-6.8404,-6.845,-6.8585,-6.8627,-6.8857,-6.883,-6.8977,-6.9251,-6.9349,-6.9435,-6.9748,-6.972,-6.9796,-6.9946,-7.0092,-7.0126,-7.0157,-7.0269,-7.0309,-6.9822,-6.9823,-6.9823,0,-6.7953,-6.8202,-6.8227,-6.8411,-6.8506,-6.8476,-6.8674,-6.8764,-6.8948,-6.9015,-6.8951,-6.9294,-6.9384,-6.9662,-6.9738,-6.9809,-6.9863,-6.9781,-7.0119,-7.0151,-7.018,-7.0287,-7.0329,-6.9831,-6.983,-6.9829,-6.9828,0,-6.8335,-6.8508,-6.8649,-6.8826,-6.8937,-6.9127,-6.9181,-6.9291,-6.9293,-6.9345,-6.9579,-6.9685,-6.9858,-6.9925,-6.9929,-7.0204,-7.0167,-7.0111,-6.9999,-7.023,-7.0331,-7.0372,-6.9843,-6.984,-6.9838,-6.9836,0,0,-6.8679,-6.8866,-6.8917,-6.8997,-6.9149,-6.9283,-6.9471,-6.9639,-6.9733,-6.986,-7.0018,-7.025,-7.0199,-7.0296,-7.0311,-7.0439,-7.068,-7.0368,-7.0371,-7.0423,-7.099,-7.1031,-7.1078,-7.0661,-7.0669,-7.0676,-7.0978,0,-6.8971,-6.9302,-6.933,-6.9628,-6.9788,-6.9761,-6.9924,-7.0035,-7.0088,-7.0231,-7.0289,-7.0453,-7.0374,-7.0432,-7.0557,-7.0624,-7.0794,-7.0602,-7.081,-7.0817,-7.0778,-7.1131,-7.1176,-7.1457,-7.1018,-7.1025,-7.103,0,-6.9357,-6.9495,-6.9809,-6.9937,-7.0005,-7.0152,-7.0308,-7.0445,-7.057,-7.0599,-7.0707,-7.0704,-7.0897,-7.0775,-7.1041,-7.091,-7.0996,-7.1042,-7.1053,-7.1075,-7.0938,-7.1164,-7.1547,-7.159,-7.1092,-7.1087,-7.1083,0,-6.9577,-6.9841,-7.0062,-7.0131,-7.0286,-7.039,-7.0459,-7.0576,-7.0675,-7.0812,-7.0877,-7.1034,-7.112,-7.1242,-7.1281,-7.1189,-7.1546,-7.1428,-7.1576,-7.1575,-7.1654,-7.1649,-7.2058,-7.1707,-7.1707,-7.1706,-7.1705,0,-6.9902,-7.0095,-7.0163,-7.03,-7.0515,-7.0545,-7.0757,-7.0821,-7.0925,-7.1073,-7.1058,-7.1198,-7.1241,-7.1388,-7.1419,-7.1635,-7.1674,-7.1703,-7.1709,-7.1706,-7.1702,-7.1763,-7.1745,-7.1717,-7.1715,-7.1713,-7.1711,0,-7.0185,-7.0238,-7.0478,-7.0605,-7.0641,-7.0794,-7.0903,-7.1034,-7.1083,-7.1271,-7.1317,-7.1395,-7.1567,-7.1617,-7.1824,-7.1846,-7.2099,-7.2087,-7.2057,-7.2058,-7.2203,-7.2189,-7.2668,-7.2732,-7.2338,-7.2341,-7.2345,0,-7.0389,-7.0537,-7.0679,-7.0777,-7.0851,-7.1009,-7.111,-7.1144,-7.125,-7.1402,-7.1515,-7.1685,-7.1822,-7.2098,-7.2174,-7.2331,-7.2324,-7.248,-7.2348,-7.2339,-7.2327,-7.2319,-7.2334,-7.2506,-7.251,-7.2514,-7.2516,0,-7.0746,-7.0765,-7.0911,-7.1067,-7.1187,-7.1312,-7.1431,-7.1512,-7.1563,-7.1683,-7.1858,-7.1965,-7.2175,-7.2344,-7.2504,-7.2575,-7.2556,-7.2557,-7.26,-7.2598,-7.2575,-7.2591,-7.2127,-7.2547,-7.2544,-7.2541,-7.254,-7.2539,-7.0997,-7.1127,-7.1247,-7.141,-7.1503,-7.1615,-7.1745,-7.1809,-7.1956,-7.213,-7.2141,-7.2331,-7.2451,-7.2663,-7.2742,-7.2891,-7.2846,-7.2908,-7.2924,-7.2939,-7.2951,-7.255,-7.292,-7.292,-7.2919,-7.2918,-7.2918,0,-7.1354,-7.143,-7.1579,-7.1746,-7.1874,-7.1843,-7.1973,-7.2082,-7.225,-7.2363,-7.2498,-7.2699,-7.2862,-7.2949,-7.3112,-7.3214,-7.3209,-7.3256,-7.325,-7.3266,-7.2982,-7.293,-7.3257,-7.3257,-7.3257,-7.3257,-7.3257,-7.3257,-7.1555,-7.1774,-7.1806,-7.207,-7.2144,-7.233,-7.2407,-7.251,-7.26,-7.2826,-7.2961,-7.3016,-7.3119,-7.3288,-7.3436,-7.3458,-7.3519,-7.3571,-7.3587,-7.3321,-7.3286,-7.3253,-7.3204,-7.3584,-7.3584,-7.3859,-7.3861,-7.3863]}]]